Regional Weather Roundup
Issued by NWS

Home | Current Version | Previous Version | Graphics & Text | Print | Product List | Glossary On
Versions: 1 2 3 4 5 6 7 8 9 10 11 12 13 14 15 16 17 18 19 20 21 22 23 24 25 26 27 28 29 30 31 32 33 34 35 36 37 38 39 40 41 42 43 44 45 46 47 48 49 50
000
ASUS43 KBIS 251502
RWRND

NORTH DAKOTA REGIONAL WEATHER ROUNDUP
NATIONAL WEATHER SERVICE BISMARCK ND
1000 AM CDT THU MAY 25 2017

NOTE: "FAIR" INDICATES FEW OR NO CLOUDS BELOW 12,000 FEET WITH NO
SIGNIFICANT WEATHER AND/OR OBSTRUCTIONS TO VISIBILITY.


NDZ001>003-009>011-017-251600-
NORTHWEST NORTH DAKOTA

CITY           SKY/WX    TMP DP  RH WIND       PRES   REMARKS
WILLISTON      CLOUDY    56  42  59 SW16G26   29.36F
MINOT          FAIR      61  51  70 S10       29.36F
MINOT AFB      SUNNY     62  51  68 SW16      29.35F
$$

NDZ018>021-031>035-040>046-251600-
SOUTHWEST NORTH DAKOTA

CITY           SKY/WX    TMP DP  RH WIND       PRES   REMARKS
BISMARCK       CLOUDY    57  48  72 SW8       29.43S
DICKINSON      FAIR      57  35  43 W18G25    29.42S
GARRISON         N/A     56  51  84 S9        29.39F
HETTINGER ARPT CLOUDY    54  42  64 W12       29.47R
$$

NDZ004>008-012>016-024-026-027-054-251600-
NORTHEAST NORTH DAKOTA

CITY           SKY/WX    TMP DP  RH WIND       PRES   REMARKS
GRAND FORKS    CLOUDY    60  48  64 S24G31    29.53F
GRND FRKS AFB  MOSUNNY   59  46  62 S25G33    29.52F
DEVILS LAKE    CLOUDY    54  46  74 S15       29.47S
$$

NDZ022-023-025-028>030-036>039-047>053-251600-
SOUTHEAST NORTH DAKOTA

CITY           SKY/WX    TMP DP  RH WIND       PRES   REMARKS
FARGO          MOSUNNY   62  47  57 S25G41    29.54F
JAMESTOWN      FAIR      59  46  62 S20G28    29.45F
$$





USA.gov is the U.S. government's official web portal to all federal, state and local government web resources and services.